EW1919 Weather Reports


Display with metric or nautical units.
time (UTC)temp
F
wind
direction
speed
MPH
gust
MPH
rain 1hr
in
rain 24hr
in
rain mn
in
humidity
%
barometer
mb
20260507210424 47 9 0.0 0.0 0.00 0.00 0.00 89 1014.9
20260507205924 47 9 0.0 0.0 0.00 0.00 0.00 89 1014.8
20260507205424 47 9 0.0 0.0 0.00 0.00 0.00 89 1014.9
20260507204921 47 9 0.0 0.0 0.00 0.00 0.00 89 1015.0
20260507204424 47 9 0.0 0.0 0.00 0.00 0.00 89 1015.0
20260507203924 47 9 0.0 1.0 0.00 0.00 0.00 89 1014.9
20260507203424 48 9 0.0 2.0 0.00 0.00 0.00 90 1015.0
20260507202924 48 261 0.0 0.0 0.00 0.00 0.00 90 1015.0
20260507202424 48 261 0.0 0.0 0.00 0.00 0.00 89 1015.2
20260507201924 48 261 0.0 0.0 0.00 0.00 0.00 89 1015.1
20260507201424 48 261 0.0 0.0 0.00 0.00 0.00 89 1015.1
20260507200921 49 261 0.0 0.0 0.00 0.00 0.00 89 1015.3
20260507200424 49 261 0.0 0.0 0.00 0.00 0.00 89 1015.2
20260507195924 49 261 0.0 0.0 0.00 0.00 0.00 89 1015.1
20260507195424 49 261 0.0 1.0 0.00 0.00 0.00 89 1015.0
20260507194924 50 261 0.0 0.0 0.00 0.00 0.00 88 1015.0
20260507194425 50 261 0.0 0.0 0.00 0.00 0.00 88 1015.0
20260507193924 50 261 0.0 1.0 0.00 0.00 0.00 88 1015.0
20260507193424 50 261 0.0 2.0 0.00 0.00 0.00 88 1015.1
20260507192924 50 261 0.0 0.0 0.00 0.00 0.00 87 1015.0
20260507192424 51 261 0.0 0.0 0.00 0.00 0.00 86 1015.0
20260507191924 51 261 0.0 0.0 0.00 0.00 0.00 85 1015.0
20260507191424 51 261 0.0 0.0 0.00 0.00 0.00 85 1014.9
20260507190924 51 261 0.0 3.0 0.00 0.00 0.00 84 1014.9
20260507190425 52 261 0.0 0.0 0.00 0.00 0.00 85 1014.7
20260507185924 52 261 0.0 1.0 0.00 0.00 0.00 84 1014.6
20260507185424 52 261 0.0 1.0 0.00 0.00 0.00 83 1014.6
20260507184924 53 261 1.0 5.0 0.00 0.00 0.00 83 1014.5
20260507184421 53 250 3.0 4.0 0.00 0.00 0.00 82 1014.5
20260507183924 53 251 3.0 3.0 0.00 0.00 0.00 82 1014.5
20260507183424 54 251 0.0 1.0 0.00 0.00 0.00 82 1014.5
20260507182924 54 249 0.0 0.0 0.00 0.00 0.00 81 1014.5
20260507182424 54 249 0.0 0.0 0.00 0.00 0.00 80 1014.3
20260507181924 55 249 0.0 4.0 0.00 0.00 0.00 80 1014.3
20260507181424 55 250 1.0 5.0 0.00 0.00 0.00 78 1014.3
20260507180924 56 249 3.0 5.0 0.00 0.00 0.00 77 1014.4
20260507180421 58 191 0.0 0.0 0.00 0.00 0.00 70 1014.3
20260507175921 58 191 0.0 0.0 0.00 0.00 0.00 70 1014.3
20260507175424 58 191 0.0 1.0 0.00 0.00 0.00 69 1014.3
20260507174924 58 191 0.0 4.0 0.00 0.00 0.00 69 1014.3
20260507174424 59 190 4.0 5.0 0.00 0.00 0.00 68 1014.3
20260507173924 59 196 3.0 5.0 0.00 0.00 0.00 68 1014.1
20260507173424 59 190 0.0 4.0 0.00 0.00 0.00 67 1013.9
20260507172921 59 190 4.0 7.0 0.00 0.00 0.00 67 1013.9
20260507172424 60 192 4.0 6.0 0.00 0.00 0.00 66 1014.0
20260507171924 60 201 0.0 6.0 0.00 0.00 0.00 66 1014.0
20260507171424 60 198 0.0 6.0 0.00 0.00 0.00 65 1013.9
20260507170921 60 197 3.0 7.0 0.00 0.00 0.00 64 1013.9
20260507170421 61 197 4.0 8.0 0.00 0.00 0.00 63 1013.9
20260507165921 61 195 6.0 5.0 0.00 0.00 0.00 62 1013.8
20260507165424 61 190 1.0 7.0 0.00 0.00 0.00 62 1013.9
20260507164924 61 203 3.0 8.0 0.00 0.00 0.00 61 1013.9
20260507164424 61 149 3.0 4.0 0.00 0.00 0.00 61 1013.8
20260507163924 61 152 0.0 7.0 0.00 0.00 0.00 61 1013.9
20260507163421 61 206 3.0 11.0 0.00 0.00 0.00 60 1013.8
20260507162924 62 218 2.0 8.0 0.00 0.00 0.00 60 1013.7
20260507162424 62 194 0.0 9.0 0.00 0.00 0.00 60 1013.7
20260507161924 62 173 6.0 8.0 0.00 0.00 0.00 61 1013.6
20260507161424 62 201 6.0 7.0 0.00 0.00 0.00 62 1013.6
20260507160924 62 108 2.0 9.0 0.00 0.00 0.00 61 1013.7
20260507160424 62 109 6.0 8.0 0.00 0.00 0.00 61 1013.6
20260507155924 62 114 4.0 8.0 0.00 0.00 0.00 62 1013.5
20260507155424 62 227 0.0 10.0 0.00 0.00 0.00 61 1013.3
20260507154924 62 225 3.0 11.0 0.00 0.00 0.00 60 1013.3
20260507154424 62 182 3.0 10.0 0.00 0.00 0.00 60 1013.4
20260507153924 62 146 3.0 10.0 0.00 0.00 0.00 61 1013.3
20260507153424 62 138 0.0 12.0 0.00 0.00 0.00 62 1013.4
20260507152921 62 211 6.0 11.0 0.00 0.00 0.00 61 1013.2
20260507152424 62 209 0.0 9.0 0.00 0.00 0.00 61 1013.2
20260507151924 62 115 2.0 10.0 0.00 0.00 0.00 60 1013.2
20260507151424 62 213 1.0 11.0 0.00 0.00 0.00 62 1013.2
20260507150924 62 136 7.0 10.0 0.00 0.00 0.00 62 1013.2
20260507150424 62 188 8.0 10.0 0.00 0.00 0.00 62 1013.3
20260507145924 62 163 8.0 9.0 0.00 0.00 0.00 62 1013.4
20260507145424 62 165 0.0 12.0 0.00 0.00 0.00 63 1013.4
20260507144924 62 155 2.0 15.0 0.00 0.00 0.00 63 1013.5
20260507144424 62 150 6.0 13.0 0.00 0.00 0.00 63 1013.3
20260507143924 62 233 1.0 12.0 0.00 0.00 0.00 64 1013.4
20260507143421 62 190 9.0 10.0 0.00 0.00 0.00 63 1013.4
20260507142924 61 171 1.0 16.0 0.00 0.00 0.00 64 1013.4
20260507142421 62 168 5.0 19.0 0.00 0.00 0.00 63 1013.4
20260507141924 62 88 4.0 12.0 0.00 0.00 0.00 64 1013.3
20260507141424 62 258 7.0 10.0 0.00 0.00 0.00 63 1013.3
20260507140924 62 142 4.0 16.0 0.00 0.00 0.00 63 1013.3
20260507140424 62 162 10.0 15.0 0.00 0.00 0.00 63 1013.2
20260507135924 62 137 0.0 6.0 0.00 0.00 0.00 65 1013.3
20260507135424 61 190 11.0 12.0 0.00 0.00 0.00 64 1013.3
20260507134924 61 167 6.0 15.0 0.00 0.00 0.00 64 1013.3
20260507134424 61 136 7.0 13.0 0.00 0.00 0.00 66 1013.4
20260507133924 61 208 5.0 11.0 0.00 0.00 0.00 67 1013.4
20260507133424 61 181 4.0 11.0 0.00 0.00 0.00 67 1013.4
20260507132924 61 103 2.0 13.0 0.00 0.00 0.00 67 1013.4
20260507132424 62 136 3.0 14.0 0.00 0.00 0.00 65 1013.5
20260507131923 62 227 0.0 11.0 0.00 0.00 0.00 66 1013.5
20260507131424 62 131 3.0 13.0 0.00 0.00 0.00 67 1013.4
20260507130923 62 155 12.0 17.0 0.00 0.00 0.00 67 1013.3
20260507130423 61 157 8.0 16.0 0.00 0.00 0.00 68 1013.3
20260507125923 61 197 9.0 9.0 0.00 0.00 0.00 68 1013.4
20260507125423 61 115 4.0 10.0 0.00 0.00 0.00 69 1013.4
20260507124923 61 113 3.0 12.0 0.00 0.00 0.00 71 1013.3
20260507124423 60 224 9.0 14.0 0.00 0.02 0.00 70 1013.3
20260507123920 61 207 6.0 13.0 0.00 0.03 0.00 69 1013.4
20260507123420 61 219 3.0 14.0 0.00 0.03 0.00 69 1013.4
20260507122921 61 146 2.0 10.0 0.00 0.03 0.00 68 1013.4
20260507122423 61 192 4.0 12.0 0.00 0.03 0.00 69 1013.4
20260507121923 60 180 6.0 11.0 0.00 0.03 0.00 71 1013.4
20260507121424 60 205 10.0 11.0 0.00 0.03 0.00 72 1013.5
20260507120923 60 103 7.0 10.0 0.00 0.03 0.00 72 1013.4
20260507120423 60 195 0.0 10.0 0.00 0.03 0.00 73 1013.4
20260507115923 59 142 1.0 8.0 0.00 0.03 0.00 73 1013.4
20260507115423 59 169 10.0 10.0 0.00 0.03 0.00 73 1013.5
20260507114923 60 185 3.0 13.0 0.00 0.03 0.00 73 1013.5
20260507114423 60 281 7.0 9.0 0.00 0.03 0.00 69 1013.4
20260507113923 61 213 4.0 9.0 0.00 0.03 0.00 70 1013.5
20260507113420 61 183 4.0 13.0 0.00 0.03 0.00 69 1013.4
20260507112923 61 95 0.0 9.0 0.00 0.03 0.00 72 1013.4
20260507112423 61 161 0.0 8.0 0.00 0.03 0.00 74 1013.4
20260507111923 60 202 3.0 10.0 0.00 0.03 0.00 70 1013.5
20260507111423 60 155 3.0 11.0 0.00 0.03 0.00 71 1013.4
20260507110923 60 180 3.0 10.0 0.00 0.03 0.00 72 1013.5
20260507110423 60 208 6.0 10.0 0.00 0.03 0.00 73 1013.5
20260507105923 60 169 5.0 9.0 0.00 0.03 0.00 73 1013.5
20260507105423 60 193 8.0 9.0 0.00 0.03 0.00 72 1013.5
20260507104923 59 210 4.0 10.0 0.00 0.03 0.00 74 1013.5
20260507104423 59 179 6.0 12.0 0.00 0.03 0.00 73 1013.7
20260507103923 59 135 11.0 12.0 0.00 0.03 0.00 73 1013.7
20260507103423 59 144 1.0 12.0 0.00 0.03 0.00 74 1013.7
20260507102923 59 181 8.0 13.0 0.00 0.03 0.00 73 1013.7
20260507102423 59 179 10.0 12.0 0.00 0.03 0.00 73 1013.6
20260507101920 59 207 4.0 11.0 0.00 0.03 0.00 72 1013.6
20260507101423 60 207 7.0 11.0 0.00 0.03 0.00 76 1013.7
20260507100923 59 143 2.0 9.0 0.00 0.03 0.00 75 1013.6
20260507100423 58 204 10.0 10.0 0.00 0.03 0.00 75 1013.6
20260507095923 57 196 3.0 3.0 0.00 0.03 0.00 75 1013.5
20260507095423 57 219 10.0 10.0 0.00 0.03 0.00 75 1013.6
20260507094923 57 223 3.0 11.0 0.00 0.03 0.00 77 1013.6
20260507094423 57 195 3.0 10.0 0.00 0.03 0.00 77 1013.6
20260507093923 57 194 9.0 10.0 0.00 0.03 0.00 77 1013.7
20260507093423 57 257 4.0 11.0 0.00 0.03 0.00 76 1013.6
20260507092923 57 170 2.0 9.0 0.00 0.03 0.00 80 1013.5
20260507092423 57 197 7.0 10.0 0.00 0.03 0.00 79 1013.6
20260507091923 57 233 7.0 8.0 0.00 0.03 0.00 80 1013.6
20260507091423 56 246 5.0 9.0 0.00 0.03 0.00 79 1013.5
20260507090923 56 211 4.0 11.0 0.00 0.03 0.00 80 1013.5
20260507090423 56 200 9.0 9.0 0.00 0.03 0.00 81 1013.5
20260507085923 56 182 5.0 8.0 0.00 0.03 0.00 80 1013.4
20260507085423 55 160 4.0 8.0 0.00 0.03 0.00 84 1013.3
20260507084923 55 188 2.0 8.0 0.00 0.03 0.00 84 1013.5
20260507084423 54 148 0.0 6.0 0.00 0.04 0.00 85 1013.5
20260507083923 54 178 4.0 9.0 0.00 0.04 0.00 85 1013.4
20260507083423 53 214 3.0 9.0 0.00 0.04 0.00 85 1013.4
20260507082923 53 171 2.0 8.0 0.00 0.04 0.00 85 1013.3
20260507082423 53 192 6.0 7.0 0.00 0.04 0.00 86 1013.3
20260507081923 52 186 6.0 0.0 0.00 0.04 0.00 87 1013.3
20260507081423 52 186 6.0 6.0 0.00 0.04 0.00 87 1013.4
20260507080923 52 206 1.0 2.0 0.00 0.04 0.00 86 1013.3
20260507080420 52 206 2.0 6.0 0.00 0.05 0.00 86 1013.3
20260507075923 52 206 3.0 6.0 0.00 0.07 0.00 86 1013.3
20260507075420 52 195 4.0 6.0 0.00 0.07 0.00 86 1013.3
20260507074923 52 157 0.0 6.0 0.00 0.08 0.00 87 1013.3
20260507074423 52 118 1.0 7.0 0.00 0.11 0.00 86 1013.3
20260507073923 52 182 5.0 6.0 0.00 0.11 0.00 86 1013.2
20260507073423 52 144 4.0 6.0 0.00 0.11 0.00 85 1013.2
20260507072923 52 142 4.0 8.0 0.00 0.12 0.00 84 1013.2
20260507072423 53 128 3.0 10.0 0.00 0.13 0.00 84 1013.2
20260507071923 53 215 3.0 8.0 0.00 0.14 0.00 83 1013.1
20260507071423 53 143 4.0 11.0 0.00 0.16 0.00 84 1012.9
20260507070923 53 170 5.0 6.0 0.00 0.18 0.00 85 1012.8
20260507070423 52 123 1.0 5.0 0.00 0.22 0.00 86 1012.9
20260507065923 52 123 3.0 9.0 0.00 0.26 0.00 87 1013.0
20260507065423 51 213 5.0 9.0 0.00 0.29 0.00 89 1012.9
20260507064923 51 158 5.0 9.0 0.00 0.29 0.00 89 1012.8
20260507064423 51 201 5.0 8.0 0.00 0.32 0.00 88 1013.0
20260507063923 51 213 3.0 9.0 0.00 0.33 0.00 88 1012.8
20260507063423 51 142 3.0 10.0 0.00 0.36 0.00 87 1012.8
20260507062923 51 213 3.0 9.0 0.00 0.38 0.00 89 1012.8
20260507062423 51 163 1.0 9.0 0.00 0.38 0.00 91 1012.7
20260507061923 50 237 3.0 10.0 0.00 0.40 0.00 90 1012.7
20260507061423 50 158 3.0 10.0 0.00 0.40 0.00 90 1012.6
20260507060923 50 208 3.0 13.0 0.00 0.40 0.00 91 1012.7
20260507060423 49 201 4.0 9.0 0.00 0.44 0.00 91 1012.7
20260507055923 49 182 4.0 7.0 0.00 0.49 0.00 91 1012.6
20260507055423 49 208 3.0 6.0 0.00 0.51 0.00 91 1012.5
20260507054920 49 193 5.0 7.0 0.00 0.52 0.00 91 1012.6
20260507054423 49 221 4.0 6.0 0.00 0.57 0.00 91 1012.6
20260507053923 48 194 5.0 5.0 0.00 0.60 0.00 91 1012.7
20260507053423 48 206 1.0 4.0 0.00 0.60 0.00 91 1012.6
20260507052923 48 200 2.0 4.0 0.00 0.61 0.00 91 1012.7
20260507052423 48 130 1.0 4.0 0.00 0.62 0.00 91 1012.6
20260507051923 48 126 0.0 0.0 0.00 0.65 0.00 91 1012.5
20260507051423 48 126 0.0 2.0 0.00 0.65 0.00 90 1012.5
20260507050923 47 126 0.0 0.0 0.00 0.65 0.00 90 1012.3
20260507050423 47 126 0.0 0.0 0.00 0.67 0.00 89 1012.2
20260507045923 47 126 0.0 0.0 0.00 0.70 0.00 89 1012.2
20260507045423 47 126 0.0 0.0 0.00 0.71 0.00 89 1012.2
20260507044923 47 126 0.0 0.0 0.00 0.71 0.00 89 1012.2
20260507044423 47 126 0.0 0.0 0.00 0.71 0.00 88 1012.1
20260507043923 47 126 0.0 0.0 0.00 0.71 0.00 88 1012.0
20260507043423 47 126 0.0 0.0 0.00 0.71 0.00 88 1012.0
20260507042920 47 126 0.0 3.0 0.00 0.74 0.00 88 1012.0
20260507042423 47 126 3.0 3.0 0.00 0.77 0.00 88 1011.9
20260507041923 47 155 0.0 2.0 0.00 0.78 0.00 88 1011.9
20260507041420 47 155 0.0 4.0 0.00 0.78 0.00 87 1011.9
20260507040923 47 180 0.0 3.0 0.00 0.79 0.00 87 1011.9
20260507040423 47 180 0.0 0.0 0.00 0.83 0.00 87 1011.8
20260507035920 47 180 0.0 0.0 0.00 0.85 0.00 87 1011.9
20260507035420 47 180 0.0 0.0 0.00 0.86 0.00 87 1011.9
20260507034923 47 180 0.0 0.0 0.00 0.88 0.00 87 1011.7
20260507034420 47 180 0.0 0.0 0.00 0.89 0.00 87 1011.8
20260507033922 47 180 0.0 0.0 0.00 0.91 0.00 87 1011.6
20260507033423 47 180 0.0 0.0 0.00 0.93 0.00 87 1011.6
20260507032923 47 180 0.0 0.0 0.00 0.98 0.00 87 1011.7
20260507032422 48 180 0.0 0.0 0.00 1.02 0.00 87 1011.8
20260507031922 48 180 0.0 3.0 0.00 1.05 0.00 87 1011.8
20260507031422 48 180 2.0 4.0 0.00 1.07 0.00 87 1011.9
20260507030919 48 174 0.0 0.0 0.00 1.08 0.00 87 1011.8
20260507030422 48 174 0.0 0.0 0.00 1.09 0.00 87 1011.8
20260507025922 48 174 0.0 5.0 0.00 1.09 0.00 87 1011.9
20260507025422 48 175 0.0 0.0 0.00 1.09 0.00 87 1011.8
20260507024922 48 174 0.0 0.0 0.00 1.10 0.00 87 1011.9
20260507024422 48 174 0.0 2.0 0.00 1.10 0.00 87 1011.8
20260507023922 48 175 1.0 3.0 0.00 1.11 0.00 87 1011.8
20260507023422 48 162 1.0 5.0 0.00 1.14 0.00 87 1011.9
20260507022919 48 152 0.0 3.0 0.00 1.19 0.00 87 1012.0
20260507022419 48 192 2.0 4.0 0.00 1.25 0.00 87 1012.0
20260507021922 48 182 0.0 3.0 0.00 1.33 0.00 87 1011.9
20260507021422 48 182 0.0 5.0 0.00 1.42 0.00 87 1012.0
20260507020922 48 184 1.0 9.0 0.00 1.51 0.00 87 1012.0
20260507020422 48 196 3.0 7.0 0.00 1.59 0.00 87 1011.9
20260507015922 48 134 0.0 7.0 0.00 1.63 0.00 87 1012.0
20260507015422 48 146 5.0 7.0 0.00 1.69 0.00 87 1012.2
20260507014919 48 150 0.0 7.0 0.00 1.70 0.00 87 1011.9
20260507014422 49 207 2.0 7.0 0.00 1.72 0.00 87 1012.0
20260507013922 49 221 0.0 8.0 0.00 1.75 0.00 87 1012.0
20260507013422 49 180 1.0 5.0 0.00 1.75 0.00 86 1012.0
20260507012919 49 157 3.0 11.0 0.00 1.76 0.00 87 1012.0
20260507012422 49 155 6.0 8.0 0.00 1.76 0.00 86 1011.9
20260507011922 49 153 4.0 11.0 0.00 1.77 0.00 87 1012.0
20260507011422 49 109 4.0 14.0 0.00 1.78 0.00 87 1012.0
20260507010922 49 205 0.0 4.0 0.00 1.79 0.00 87 1012.0
20260507010422 49 119 2.0 12.0 0.00 1.79 0.00 87 1012.0
20260507005922 49 205 3.0 8.0 0.00 1.80 0.00 87 1012.0
20260507005422 49 159 8.0 12.0 0.00 1.81 0.00 87 1012.1
20260507004922 49 163 0.0 10.0 0.00 1.85 0.00 87 1012.0
20260507004422 49 202 3.0 10.0 0.00 1.96 0.00 86 1012.1
20260507003922 50 200 3.0 13.0 0.00 2.04 0.00 86 1011.9
20260507003422 50 155 4.0 12.0 0.00 2.13 0.00 86 1012.0
20260507002922 50 196 0.0 9.0 0.00 2.26 0.00 87 1012.2
20260507002422 50 199 9.0 12.0 0.00 2.40 0.00 87 1012.1
20260507001919 50 225 5.0 12.0 0.00 2.51 0.00 87 1012.2
20260507001422 50 220 11.0 13.0 0.00 2.57 0.00 87 1012.2
20260507000922 50 217 3.0 11.0 0.00 2.70 0.00 87 1012.3
20260507000422 50 211 3.0 8.0 0.00 2.76 0.00 87 1012.3
20260506235919 50 207 4.0 9.0 0.00 2.77 0.00 87 1012.3
20260506235422 50 227 6.0 9.0 0.00 2.78 0.00 87 1012.3
20260506234922 50 214 4.0 8.0 0.00 2.83 0.00 87 1012.3
20260506234422 50 191 4.0 10.0 0.00 2.85 0.00 87 1012.3
20260506233922 50 198 8.0 8.0 0.00 2.87 0.00 87 1012.4
20260506233419 50 206 1.0 11.0 0.00 2.88 0.00 87 1012.4
20260506232922 50 120 2.0 10.0 0.00 2.88 0.00 87 1012.3
20260506232422 50 189 1.0 10.0 0.00 2.89 0.00 87 1012.5
20260506231919 50 166 4.0 10.0 0.00 2.89 0.00 87 1012.5
20260506231422 50 109 4.0 14.0 0.00 2.89 0.00 87 1012.6
20260506230922 50 142 0.0 10.0 0.00 2.89 0.00 87 1012.4
20260506230422 50 176 5.0 9.0 0.00 2.89 0.00 87 1012.4
20260506225922 50 199 0.0 6.0 0.00 2.89 0.00 87 1012.4
20260506225419 50 188 7.0 9.0 0.00 2.90 0.00 87 1012.4
20260506224919 51 181 6.0 11.0 0.00 2.90 0.00 87 1012.4
20260506224422 51 171 4.0 6.0 0.00 2.90 0.00 87 1012.4
20260506223922 51 201 3.0 8.0 0.00 2.92 0.00 87 1012.6
20260506223419 51 208 3.0 11.0 0.00 2.95 0.00 87 1012.6
20260506222922 51 133 2.0 8.0 0.00 2.99 0.00 87 1012.6
20260506222422 51 205 4.0 12.0 0.00 3.01 0.00 87 1012.7
20260506221922 51 185 3.0 8.0 0.00 3.05 0.00 87 1012.7
20260506221422 51 197 5.0 12.0 0.00 3.07 0.00 87 1012.6
20260506220922 51 170 12.0 12.0 0.00 3.09 0.00 87 1012.5
20260506220422 51 180 4.0 11.0 0.00 3.14 0.00 87 1012.5
20260506215919 51 164 9.0 16.0 0.00 3.14 0.00 88 1012.6
20260506215422 51 168 6.0 10.0 0.00 3.18 0.00 88 1012.5
20260506214922 51 173 2.0 15.0 0.00 3.18 0.00 88 1012.5
20260506214419 51 192 11.0 12.0 0.00 3.20 0.00 88 1012.6
20260506213922 51 182 2.0 9.0 0.00 3.24 0.00 88 1012.4
20260506213422 51 179 4.0 10.0 0.00 3.24 0.00 89 1012.4
20260506212919 51 243 5.0 12.0 0.00 3.25 0.00 89 1012.4
20260506212422 51 212 7.0 11.0 0.00 3.29 0.00 89 1012.5
20260506211919 51 196 7.0 11.0 0.00 3.41 0.00 90 1012.6
20260506211422 51 213 4.0 10.0 0.00 3.52 0.00 90 1012.5
20260506210922 51 200 6.0 11.0 0.00 3.61 0.00 90 1012.6